User: anonymous   Login
Location: Vancouver
(49.2500°N, 123.1330°W)
Time: 00:36:16
(UTC-08:00)
Language:

Cosmos 1864 Rocket - Orbit

View from above orbital plane
View from above orbital plane
View from above satellite
View from above satellite

Ground track
Ground track

The orbit data is extracted from the following two-line orbital elements,

1 18161U 87057B   14331.35470617  .00000073  00000-0  57788-4 0  6074
2 18161 082.9360 046.0601 0031833 046.3796 021.9519 13.76866211355851
Epoch (UTC): 27 November 2014 08:30:46
Eccentricity: 0.0031833
inclination: 82.9360°
perigee height: 951 km
apogee height: 998 km
right ascension of ascending node: 46.0601°
argument of perigee: 46.3796°
revolutions per day: 13.76866211
mean anomaly at epoch: 21.9519°
orbit number at epoch: 35585

The dashed part of the orbit path shows where the satellite is in the earth's shadow,  

DLR